Nueva Hesperides International Airport

Jump to: basic info | weather | frequencies | runways | comments

Related pages: nearby airports | nearby navaids | notams | map

Basic information (top)

Codes: STY SUSO
Location: lon -31.438499, lat -57.985298, elev 187 ft / 57 m msl
Status: medium_airport

Weather (top)

Current conditions (rec'd 2014/09/24 00:00Z):

SUSO 240000Z 15008KT 80000 TSRA BKN013 FEW050CB OVC67 14/13 Q1012

Airport forecast (rec'd 2014/09/22 18:30Z):

TAF SUSO 221730Z 2218/2318 05010KT 9999 SCT023 SCT200 TX26/2318Z TN12/2310Z PROB30 
      TEMPO 2218/2300 05015G25KT PROB40 
      TEMPO 2300/2312 05005KT 4000 BR BKN010 PROB40 
      TEMPO 2306/2312 0800 FG BKN005 
      BECMG 2304/2306 35003KT 
      BECMG 2316/2318 6000 RA BKN017 OVC060

Frequencies (top)

Verify before use: may be inaccurate or out of date.

RDO: 286 MHz (SALTO RDO)
TWR: 118.8 MHz (SALTO TWR)

Runways (top)

05/23: 5,210 x 148 ft (1,588 x 45 m) — paved — lighted

13/31: 2,461 x 164 ft (750 x 50 m) — grass — not lighted

Latest comments (top)

No comments yet for Nueva Hesperides International Airport

More... (top)

See also NOTAMs and nearby airports and navaids, or visit the Nueva Hesperides International Airport page at the main OurAirports website..